Orbital Elements at Epoch 2459200.5 (2020-Dec-17.0) TDB
Reference: JPL 27 (heliocentric ecliptic J2000)
Element | Value | Uncertainty (1-sigma) | Units |
e | .2038773595710794 | 3.2864e-08 | |
a | 2.419209236273447 | 9.1896e-09 | au |
q | 1.92598724493205 | 7.8794e-08 | au |
i | 2.121505005306601 | 3.6154e-06 | deg |
node | 85.27430845738833 | 0.0001435 | deg |
peri | 218.244244401088 | 0.00014415 | deg |
M | 183.4297123915517 | 1.5314e-05 | deg |
tp | 2459874.599024077697 (2022-Oct-22.09902408) | 6.012e-05 | TDB |
period | 1374.385531987771 3.76 | 7.8311e-06 2.144e-08 | d yr |
n | .2619352369631924 | 1.4925e-09 | deg/d |
Q | 2.912431227614845 | 1.1063e-08 | au |
|
| | Orbit Determination Parameters
Additional Information
|